Theta_e
315 315 316 316 317 318 318 318 319 319 319 319 320 321 321 320 320 321 320 321 321 322 322 322 322 323 325 329 332 339 327 334 338 343 347 348 348 348 349 346 350 349 346 347 347
312 313 313 314 315 315 316 317 318 318 318 318 318 320 321 319 319 320 320 319 319 321 322 323 323 322 323 328 331 327 323 327 334 339 348 348 348 348 348 350 349 348 348 349 348
309 310 311 313 313 314 314 315 317 318 317 317 317 321 322 319 318 319 320 319 319 319 319 320 322 322 324 326 327 327 326 327 332 341 348 348 348 350 349 350 349 348 348 348 348
308 309 309 310 311 312 313 313 315 316 316 316 316 321 321 319 316 329 328 325 319 319 319 320 322 324 327 326 325 325 326 328 335 345 348 349 348 349 348 346 347 347 348 349 349
308 308 309 309 310 311 311 312 313 315 316 316 315 321 320 318 319 320 325 325 323 319 319 320 322 324 327 325 323 323 330 329 338 344 347 349 349 348 349 347 346 348 349 347 347
309 309 309 309 309 310 311 311 312 314 314 315 315 320 318 315 319 322 322 330 326 321 318 321 321 323 327 323 322 329 336 338 342 344 347 348 349 348 349 347 347 348 349 346 346
310 310 310 310 310 310 311 311 312 313 314 315 315 320 318 321 320 331 331 329 325 319 319 321 323 324 325 324 325 335 335 336 340 343 344 347 347 349 349 347 348 349 349 349 346
309 309 310 311 310 310 311 311 312 313 314 315 315 320 320 321 320 330 331 328 323 321 321 321 320 321 326 325 326 331 331 338 338 341 345 339 343 350 349 348 349 349 348 348 347
310 309 309 311 311 311 311 311 312 313 315 315 316 319 322 322 320 327 329 327 321 321 320 320 322 324 323 323 325 325 337 332 340 340 343 340 344 351 348 348 348 349 348 347 345
311 312 310 310 311 312 312 311 312 316 322 317 318 322 322 324 326 327 328 328 318 320 318 320 321 318 319 320 328 329 330 334 340 339 342 340 342 350 349 348 348 348 348 348 347
308 309 312 311 310 311 312 311 314 320 318 322 323 323 322 323 325 328 328 326 319 318 317 320 318 319 321 321 326 327 327 334 336 333 339 336 340 347 350 349 349 349 349 349 348
307 308 309 312 311 311 310 315 312 309 311 317 319 319 323 322 322 326 327 325 321 318 318 318 318 319 321 322 326 327 328 328 326 329 337 335 338 344 348 350 349 349 349 349 349
306 306 307 309 312 311 310 314 310 310 312 317 320 320 321 323 323 324 326 324 318 317 317 317 320 321 323 324 324 323 323 323 326 330 334 336 338 344 344 345 345 345 346 346 348
305 306 306 308 311 311 311 309 311 311 313 317 318 320 321 323 325 325 327 324 319 318 317 318 319 321 322 323 322 325 322 324 324 327 327 334 335 338 342 344 341 343 343 344 345
304 304 305 306 306 310 310 310 311 316 318 318 320 322 323 324 324 327 327 326 318 317 317 318 319 319 321 321 322 324 322 323 324 324 335 337 334 332 339 341 342 340 342 343 344
305 306 304 306 306 308 309 310 313 317 321 321 322 320 323 324 326 325 323 326 321 318 318 317 320 319 320 320 322 321 322 318 317 319 327 331 333 331 340 342 341 340 341 341 342
303 305 306 305 306 307 307 310 311 317 320 320 321 320 321 322 323 323 320 319 317 318 318 320 320 319 322 321 321 319 318 319 322 324 328 322 332 335 331 337 339 339 340 341 341
302 302 305 307 306 308 307 306 312 315 319 319 319 319 321 321 322 323 322 323 317 316 314 317 318 319 320 319 319 319 318 319 323 323 325 323 331 333 328 332 338 339 340 340 341
301 303 304 306 308 308 309 306 310 313 318 319 318 319 318 321 323 323 321 326 320 315 317 316 318 319 320 319 320 320 320 318 319 320 323 322 323 325 327 328 327 334 338 340 341
300 302 305 309 312 307 305 308 307 310 314 318 318 318 319 320 322 322 319 321 321 317 316 317 320 319 323 323 321 320 319 323 318 325 326 324 326 327 328 327 328 329 334 338 340
301 302 307 312 309 307 304 304 308 312 312 314 316 318 318 318 317 318 321 322 322 318 316 315 317 320 323 323 322 322 321 317 318 319 323 324 324 322 327 327 328 329 333 336 339
301 299 309 309 310 305 307 307 311 311 312 311 312 314 315 316 317 317 317 320 322 318 318 316 316 319 320 320 322 321 321 319 322 322 318 321 324 322 323 325 327 329 334 337 339
302 302 307 307 304 305 307 311 311 311 310 311 311 312 313 314 315 315 316 318 320 318 317 316 315 318 320 319 320 323 320 318 315 316 321 325 324 323 326 326 328 331 335 339 340
302 300 306 309 308 308 309 311 312 315 312 311 311 311 312 312 312 312 315 317 316 320 320 319 313 319 324 322 320 323 322 320 320 320 320 322 325 325 330 328 328 333 336 338 340
302 300 304 305 305 304 306 309 313 315 313 315 314 311 312 313 312 310 311 312 314 317 322 316 317 315 318 321 321 322 323 321 321 321 325 325 324 325 327 328 330 335 335 338 338
302 303 304 304 304 305 307 310 312 312 311 315 316 314 315 310 311 312 312 312 313 314 321 318 321 317 321 321 321 322 322 322 323 321 322 323 322 322 325 328 329 333 335 338 337
302 304 303 303 302 304 306 309 309 309 311 311 312 312 314 315 316 316 317 315 311 315 313 316 319 319 321 322 321 322 322 323 323 321 323 324 324 323 326 328 330 333 336 338 338
Wind_Speed
13 13 14 14 14 14 15 16 16 16 16 16 17 17 16 16 17 20 22 20 9 16 14 4 3 2 2 4 6 2 3 1 7 7 4 13 5 7 6 17 2 2 20 26 28
14 15 15 15 15 16 16 16 17 17 17 17 17 17 16 16 18 23 22 17 16 13 10 5 4 4 3 3 4 4 3 8 7 8 7 13 10 10 7 9 9 18 21 29 28
15 14 16 16 17 17 17 17 17 17 18 18 18 17 15 14 17 9 7 15 20 19 15 7 5 2 4 3 5 5 5 5 6 14 27 16 9 2 15 2 10 33 30 30 27
17 17 15 17 18 18 18 18 18 18 18 18 17 16 13 10 4 1 2 3 14 23 17 11 7 5 0 3 4 2 11 6 11 20 21 16 11 8 5 3 23 33 33 29 28
18 19 19 17 18 19 19 19 19 19 17 18 17 14 12 8 16 8 4 1 8 20 24 15 12 6 3 4 6 3 2 10 20 28 26 19 5 5 4 17 30 28 29 29 28
19 20 21 20 19 20 20 20 20 19 18 16 16 13 10 5 5 6 7 3 3 17 23 17 8 8 3 3 2 4 15 12 16 20 17 9 6 1 9 24 28 29 27 27 25
20 20 21 21 21 20 20 20 21 19 17 16 15 13 14 20 8 4 4 1 3 12 18 15 9 4 2 3 5 5 7 9 8 11 4 19 2 3 23 25 27 28 27 26 23
21 22 22 22 22 23 20 20 20 20 16 13 12 11 11 9 9 10 7 4 6 10 11 11 12 4 3 3 5 5 6 5 3 5 13 1 4 4 24 28 23 26 27 27 26
23 22 23 23 22 23 22 19 19 18 14 10 10 7 11 5 8 11 11 4 4 9 10 11 8 5 4 5 4 6 6 4 2 10 6 1 3 12 25 25 22 24 27 28 29
25 24 23 23 23 22 21 18 13 11 8 6 10 6 11 2 6 7 17 11 3 11 9 6 5 4 3 4 5 6 6 2 6 10 7 3 3 13 25 24 25 26 28 30 31
24 25 24 22 22 21 20 9 7 4 6 9 2 7 16 14 8 5 11 16 4 9 5 5 4 7 9 6 5 8 7 5 6 6 6 6 4 13 22 22 21 25 28 32 34
24 25 25 22 20 17 10 3 9 8 13 17 21 29 29 22 7 3 12 12 7 5 4 4 7 7 8 7 6 6 5 5 5 3 6 7 8 13 22 32 30 27 29 34 36
24 25 26 22 18 7 9 3 8 13 5 14 20 21 31 19 15 19 17 13 5 6 5 6 4 11 6 5 7 6 8 5 4 1 4 5 5 6 13 19 23 26 29 34 38
25 24 26 24 10 11 6 8 10 13 3 8 5 6 17 14 6 19 20 13 2 11 7 4 4 7 6 4 6 5 8 6 8 5 4 5 5 7 8 16 15 28 31 36 39
26 24 24 22 21 11 7 10 12 3 4 4 4 2 9 19 11 16 26 19 9 5 7 8 7 7 5 6 8 4 7 6 1 4 5 2 2 5 11 10 20 29 33 39 43
26 23 24 23 23 12 3 9 1 4 7 6 3 5 6 6 6 8 12 14 9 5 3 6 2 6 9 5 9 6 6 8 5 4 1 7 6 4 7 19 21 25 34 39 42
27 24 22 25 21 19 14 6 3 5 3 5 4 4 5 6 4 5 9 9 8 5 5 1 5 2 2 4 3 7 7 3 4 2 6 3 4 10 10 10 22 24 40 44 45
27 26 23 23 15 14 6 3 7 7 10 3 1 2 7 7 7 3 8 10 2 6 4 6 5 9 4 9 7 7 9 6 7 4 4 5 7 10 13 21 25 30 34 36 37
28 26 21 15 9 12 12 5 7 7 6 2 4 1 3 3 5 5 9 13 12 10 9 6 6 3 5 6 11 4 4 7 7 2 3 4 7 9 4 6 13 25 21 30 38
30 28 8 6 9 14 3 5 6 4 5 0 7 4 5 4 8 7 10 7 6 10 4 7 1 5 3 5 1 8 8 4 2 5 5 4 4 5 6 10 7 9 26 33 38
25 14 10 3 8 11 4 7 7 22 4 2 4 2 2 3 6 7 9 3 13 10 8 6 4 5 3 7 9 3 3 6 5 5 6 4 7 9 9 9 9 10 20 27 36
13 4 3 10 1 1 3 5 4 6 7 6 3 4 5 3 2 2 8 7 16 10 11 8 5 5 12 4 1 6 9 8 5 5 2 4 7 5 10 8 10 19 14 19 26
19 8 11 9 2 2 5 4 5 4 5 5 6 6 1 5 2 4 3 6 6 7 9 8 3 3 9 5 3 4 4 5 5 4 7 5 7 3 6 7 15 15 14 16 20
8 4 4 0 2 3 5 5 5 8 7 5 2 2 2 1 2 3 2 3 13 4 6 10 3 10 16 9 5 5 7 6 7 5 6 7 6 7 7 8 9 15 15 18 21
3 2 4 4 3 7 3 4 5 3 5 4 2 9 7 5 3 6 5 8 10 4 4 8 8 7 8 12 9 8 7 10 9 7 9 7 10 11 10 12 21 23 17 20 24
4 2 5 13 14 6 2 2 5 7 3 3 1 5 2 4 6 3 6 5 7 5 5 1 5 8 11 14 10 10 14 10 11 3 5 5 8 10 4 11 12 24 25 27 28
4 5 5 5 5 3 3 4 7 10 8 9 8 6 5 4 6 12 17 15 13 4 3 3 4 4 7 14 5 4 15 12 6 5 7 6 12 6 6 9 21 30 33 36 34
Wind_Direction
336 334 332 329 327 325 324 323 322 322 321 320 318 313 305 293 282 274 260 247 239 225 242 231 167 195 252 254 234 240 50 160 182 151 166 157 152 167 141 137 76 138 155 157 151
332 330 327 324 323 321 320 319 318 319 320 320 319 316 308 299 289 271 260 255 241 226 224 202 153 149 241 229 204 136 152 212 185 153 150 166 174 138 128 142 93 116 145 155 157
328 325 323 320 317 317 317 316 314 316 317 319 319 318 310 307 309 291 237 232 231 230 231 212 195 233 225 223 196 189 210 182 194 152 148 162 168 97 132 200 186 146 157 164 164
326 323 320 318 315 314 313 313 311 312 315 317 318 317 310 302 278 116 53 234 221 215 214 198 192 192 215 247 210 237 249 200 148 149 141 156 161 140 174 207 167 159 160 166 172
328 324 320 317 313 311 310 310 308 308 312 314 314 312 308 278 256 277 271 300 219 208 207 190 179 187 196 244 303 186 287 180 160 153 151 148 164 154 168 152 158 162 166 171 178
325 325 322 318 313 309 308 310 307 305 307 310 309 302 293 263 262 259 254 262 266 203 196 191 203 204 206 240 263 346 89 81 124 134 134 133 167 187 142 158 161 167 176 177 182
323 321 320 316 313 310 308 311 307 303 304 303 300 294 282 264 269 210 172 218 252 193 189 189 183 148 216 290 351 120 77 61 82 117 98 134 267 142 160 166 164 176 184 189 188
324 322 319 317 316 312 312 312 306 303 301 294 289 290 266 273 242 214 206 218 215 201 192 194 206 168 217 314 29 73 58 91 269 127 163 201 236 140 170 169 177 183 189 195 198
321 320 319 318 318 315 316 313 304 301 293 275 271 273 264 273 249 210 201 212 217 185 162 162 162 161 132 100 38 4 148 133 176 191 153 182 222 170 178 179 184 193 197 200 201
324 320 318 318 320 320 321 319 303 298 284 246 246 285 248 87 356 296 226 231 182 169 163 157 153 102 56 90 185 162 131 147 186 207 178 154 288 167 183 188 193 198 203 209 211
325 321 319 319 322 327 332 325 300 278 271 228 195 247 270 277 291 267 209 193 143 164 154 183 112 188 181 190 138 122 127 173 205 196 153 205 180 183 191 203 205 205 207 213 217
327 324 320 321 323 330 348 65 71 344 300 269 261 257 257 256 294 232 192 154 169 186 136 74 210 217 125 151 127 117 130 221 311 173 157 191 224 190 187 213 207 207 213 216 222
328 327 323 324 326 332 341 172 340 331 260 284 247 243 243 239 228 243 185 178 144 160 183 148 259 153 138 147 155 172 170 171 182 89 51 97 314 188 213 213 226 224 226 227 226
327 329 327 326 330 340 118 345 329 319 353 276 251 253 201 195 234 226 202 179 174 187 145 211 199 143 154 182 140 231 175 160 140 128 216 149 259 240 190 210 222 227 222 226 229
325 325 324 322 313 322 284 312 324 150 319 248 220 162 186 175 153 194 200 195 167 182 127 225 176 162 165 195 175 239 136 158 132 102 105 207 47 261 164 216 225 227 222 227 230
320 321 317 310 309 319 311 323 149 53 244 299 212 167 115 236 204 129 157 181 181 145 140 199 238 170 195 168 180 162 80 43 54 90 94 212 166 263 183 215 228 220 226 227 228
316 314 308 299 303 302 300 310 76 189 276 260 233 167 150 183 240 149 155 159 159 145 216 35 216 232 165 89 70 90 71 7 349 6 215 102 129 236 228 232 222 208 217 223 225
315 314 304 300 295 275 257 65 207 198 216 299 120 104 181 158 214 149 136 181 203 112 120 165 271 167 178 173 173 176 151 154 197 193 245 85 213 247 228 235 233 235 228 223 219
320 313 313 303 272 234 166 204 213 202 222 246 351 230 268 207 159 161 177 204 191 169 166 150 257 251 187 151 148 183 145 184 106 24 91 235 284 304 293 275 240 239 229 223 220
329 322 333 292 292 186 128 226 222 237 316 165 201 193 221 217 158 179 166 194 196 182 156 200 251 209 200 114 192 156 160 104 3 157 214 264 267 231 247 253 224 242 220 223 224
333 322 330 331 148 169 200 233 219 259 299 292 223 238 246 201 173 166 198 247 190 188 142 140 123 288 114 197 162 115 166 56 122 132 182 213 254 216 221 237 260 259 245 227 221
343 327 110 119 331 173 202 203 248 254 234 249 278 224 202 275 257 234 193 210 191 148 177 201 166 207 232 253 192 177 186 152 149 226 211 176 257 232 232 252 270 275 265 230 231
329 281 210 271 267 279 291 282 261 280 243 185 225 220 204 204 223 209 228 262 141 145 164 170 218 266 301 348 353 196 174 118 98 83 184 165 266 262 260 281 259 255 245 223 226
322 328 322 315 102 11 350 265 240 265 266 230 249 330 71 283 351 305 307 298 20 136 318 176 156 185 228 217 162 189 180 174 150 146 179 208 235 271 235 233 225 236 225 214 217
306 284 351 334 322 330 290 288 304 243 332 305 199 234 220 232 194 194 249 305 302 259 180 159 214 183 236 224 193 209 186 171 181 188 187 225 198 236 225 210 216 214 203 196 201
278 332 331 303 300 308 283 325 20 336 309 329 117 355 359 211 199 141 203 200 239 314 170 155 245 175 234 231 209 220 229 207 217 158 234 175 241 226 291 208 191 202 195 196 196
256 280 304 297 316 349 272 15 330 337 293 310 22 346 306 234 284 281 274 271 277 285 15 297 144 125 239 229 134 274 229 205 191 188 166 172 227 166 203 207 205 202 199 196 199